CZ-2F R/B

基本信息
目录编号:
58147
目录名称:
CZ-2F R/B
国际标识:
2023-164B
轨道中心:
EARTH
物体状态:
已陨落(2023-11-03)
发射日期:
2023-10-26 UTC
国别:
中国 (CN)
轨道信息
数据来源: 国际轨道数据
星历时间: 2023-11-03T08:38:36+0800
半长轴: 6550.205km
偏心率: 0.0031817
轨道倾角: 41.461°
近地点辐角: 181.452°
升交点赤经: 28.928°
平近点角: 311.319°
近地点: 151.229km
远地点: 192.911km
周期: 87.931分钟
每日圈数: 16.376478
详细信息
发射场:
JSC
轨道高度:
LEO
数据来源:
AOE Integration Group
参考系:
TEME
时间系统:
UTC
历元类型:
SGP4
2D轨道图
3D轨道图
轨道高度分析图
轨道倾角分析图
轨道综合分析图
查看轨道综合分析图